972  
SXUS52 KCHS 271527  
OSOCHS  
 
MARINE OBSERVATIONS  
NATIONAL WEATHER SERVICE CHARLESTON SC  
1100 AM EDT TUE JUN 27 2017  
   
..DOWNTOWN CHARLESTON AND HARBOR
 
 
 
CITY SKY/WX TMP DP RH WIND PRES REMARKS  
WATERFRONT PRK N/A 82 68 62 VRB3 30.02S  
   
..LAKE MOULTRIE
 
 
 
CITY SKY/WX TMP DP RH WIND PRES REMARKS  
PINOPOLIS N/A 79 68 69 NW5 29.98S  
   
..LAKE AND SUPPLEMENTAL COASTAL OBSERVATIONS
 
 
 
STATION/POSITION TIME TEMP WIND PRES WAVE SWELL  
AIR SEA DIR/SP/G HT/PER HT/PER/DIR  
(UTC) (F) (DEG/KT/KT) (MB) (FT/S) (FT/S/D)  
FORT PULASKI 1500 80 83 60/ 5/ 6 1017.4  
SAPELO ISLAND 1500 84 30/ 6 1017.0  
WINYAH BAY 1445 81 360/ 2 1017.0S  
LAKE MURRAY 1520 80 10/ 1/ 4 1016.9  
ACE BASIN NERRS 1445 82 350/ 2 1017.0F  
 
   
..C-MAN AND BUOY OBSERVATIONS
 
 
 
STATION/POSITION TIME TEMP WIND PRES WAVE SWELL  
AIR SEA DIR/SP/G HT/PER HT/PER/DIR  
(UTC) (F) (DEG/KT/KT) (MB) (FT/S) (FT/S/D)  
BUOY 41004 1510 79 81 30/ 10/ 12 1016.6  
BUOY 41008 1450 78 81 40/ 6/ 8 1016.4R 1/ 8 2/140/ 8  
FOLLY BEACH CMAN 1500 81 10/ 3/ 4 1017.6F  
CAPERS NS BUOY 1508 86 83 40/ 6/ 8 1016.9F  
FRIPP NS BUOY 1508 80 83 40/ 8/ 10 1016.6R  
5E ST. MARYS GA 1500 80 N/A 2/ 8  
 
 
STATION/POSITION TIME TEMP WIND PRES WAVE SWELL  
AIR SEA DIR/SP/G HT/PER HT/PER/DIR  
(UTC) (F) (DEG/KT/KT) (MB) (FT/S) (FT/S/D)  
FRYING PAN BUOY 1510 79 80 10/ 4/ 6 1017.0  
BUOY 41025 1450 78 81 350/ 8/ 10 1016.6R 2/ 7 2/ 70/ 7  
CAPE LOOKOUT NC 1500 81 360/ 2/ 3 1016.7R  
BUOY 41002 1450 77 80 260/ 10/ 12 1017.6R 3/ 5 2/230/ 5  
BUOY 41010 1510 83 84 220/ 12/ 14 1016.6  
ST AUGUSTINE FL 1500 81 78 320/ 4/ 5 1016.9F  
 

 
 
 
CLICK HERE TO GO TO PREVIOUS BULLETINS.

The Nexlab SC Page
The Nexlab GA Page Main Text Page